Location: Corsier
(46.2637°N, 6.2238°E)
Time: 01:50:00
(UTC+00:00)

BREEZE-M R/B - Pass Details

Date: 07 June 2020
Orbit: 311 x 4533 km, 49.7° (Epoch: 11 July)

Event Time Altitude Azimuth Distance (km) Brightness Sun altitude
Rises 02:53:33 0° 291° (WNW) 2,953 6.3 -7.5°
Reaches altitude 10° 02:56:21 10° 292° (WNW) 1,664 5.0 -7.2°
Maximum altitude 02:59:42 85° 22° (NNE) 362 2.0 -6.8°
Drops below altitude 10° 03:02:08 10° 110° (ESE) 1,212 5.0 -6.4°
Sets 03:03:52 0° 111° (ESE) 2,033 6.1 -6.2°
